Location: Berville
(49.1893°N, 2.0748°E)
Time: 06:36:20
(UTC+00:00)

Cosmos 2369 Rocket - Pass Details

Date: 08 February 2023
Orbit: 829 x 852 km, 71.0° (Epoch: 21 March)

Event Time Altitude Azimuth Distance (km) Brightness Sun altitude
Rises 20:38:50 0° 333° (NNW) 3,383 5.9 -35.8°
Reaches altitude 10° 20:41:19 10° 337° (NNW) 2,447 5.0 -36.2°
Enters shadow 20:43:13 22° 342° (NNW) 1,764 4.1 -36.5°
